Theta_e
316 316 321 331 327 325 331 332 329 325 324 326 327 328 328 328 332 332 328 328 328 322 326 324 323 323 322 321 318 313 307 304 303 303 302 302 302 302 302 302 302 302 302 302 302 302 302 302 302
316 321 327 329 325 325 324 326 324 325 325 328 328 328 329 330 328 328 328 328 326 327 327 325 322 321 321 320 319 314 309 305 303 302 301 301 301 302 302 302 302 302 302 302 302 301 301 301 302
316 321 328 320 321 327 327 326 324 323 328 324 327 328 328 327 327 327 328 328 326 327 325 324 322 320 320 318 320 315 311 305 303 302 301 301 301 301 301 301 301 301 301 301 301 301 301 301 301
320 326 325 321 324 322 324 322 319 320 325 326 327 325 327 327 327 328 328 326 326 325 323 322 321 319 319 318 318 312 309 305 302 303 301 301 300 301 301 301 301 301 301 301 300 300 300 300 302
316 324 319 319 321 320 318 315 317 320 325 326 326 326 327 327 328 328 327 326 324 323 322 321 320 319 318 318 317 308 306 305 304 302 306 300 300 300 300 300 300 300 300 300 300 300 300 299 301
324 319 318 320 319 317 314 316 319 322 326 326 326 326 325 326 327 327 326 322 322 322 321 320 319 318 317 317 315 301 301 301 300 300 300 300 300 300 300 300 300 300 300 300 300 300 300 299 299
319 315 318 318 318 316 316 318 319 323 324 325 326 325 324 324 325 326 324 323 322 322 321 320 318 317 317 316 309 300 300 300 300 299 299 300 301 302 303 303 302 302 301 300 300 300 300 299 299
325 315 319 316 317 318 316 322 323 323 324 325 324 326 325 324 325 325 324 322 322 321 320 319 318 316 316 310 301 300 300 300 299 300 301 303 303 303 303 303 303 303 302 302 301 300 300 299 299
318 311 312 315 316 317 316 319 325 325 324 325 325 327 326 325 325 325 323 322 321 321 321 320 318 315 313 309 302 300 300 300 300 303 304 304 304 304 304 304 304 303 303 303 303 301 300 300 300
312 309 313 313 315 314 317 318 318 322 325 325 325 325 326 326 326 325 324 323 322 321 320 317 316 312 308 304 302 300 300 301 304 304 304 305 306 306 305 305 304 304 303 303 303 302 301 300 301
313 312 312 314 315 317 316 317 318 319 322 325 325 325 326 326 325 325 325 325 325 322 320 318 317 314 307 302 301 300 300 303 305 306 307 307 307 307 307 307 306 305 304 304 304 303 302 301 300
314 314 313 315 315 316 315 318 317 318 319 322 323 324 326 326 326 325 325 325 324 323 320 318 316 313 307 306 302 303 304 306 307 310 308 309 307 308 308 308 307 307 306 305 304 304 303 302 300
313 313 315 314 314 315 317 313 317 318 323 325 325 325 326 326 326 326 325 324 322 321 319 318 316 313 310 312 312 312 312 312 312 311 311 311 311 310 309 308 308 308 308 306 306 306 305 304 302
315 314 315 314 316 315 314 313 315 315 324 325 325 324 324 325 326 325 324 324 322 320 319 318 316 313 311 312 313 313 313 313 313 312 311 311 311 310 310 309 310 309 309 308 307 307 307 304 303
316 315 311 314 314 314 316 314 313 314 322 321 322 321 321 322 324 324 323 322 321 320 320 317 315 313 312 313 313 313 312 311 311 312 311 311 310 310 309 309 310 310 309 308 308 307 307 305 303
313 312 311 314 313 314 315 316 313 315 320 315 316 317 319 320 321 322 322 321 320 320 319 316 315 313 312 312 313 312 312 312 311 311 311 310 310 309 309 310 310 310 309 308 308 307 307 306 302
311 313 311 315 313 313 313 314 313 315 316 313 314 314 315 315 317 319 320 320 319 319 318 316 313 311 311 311 312 312 312 311 310 310 310 310 310 310 310 310 310 310 309 309 308 307 306 306 303
315 311 312 314 314 314 313 312 313 315 315 314 314 314 314 314 313 314 317 315 316 314 315 313 312 312 311 312 312 312 312 311 311 312 311 311 311 311 311 311 311 310 309 308 307 306 306 306 305
313 314 315 314 314 315 315 314 315 314 315 315 315 314 314 314 314 314 314 315 313 312 313 313 312 312 312 312 312 312 312 312 312 312 312 311 311 311 311 311 309 309 309 308 307 307 307 306 305
312 315 315 315 315 315 315 314 314 314 313 315 315 315 315 315 314 314 314 313 313 313 313 312 312 313 312 311 310 309 309 308 307 307 308 306 310 310 310 309 307 307 305 305 306 307 307 305 304
311 311 312 314 316 315 316 316 314 313 314 314 315 315 314 313 313 312 312 310 310 310 310 310 310 310 309 309 308 307 307 306 306 306 305 309 310 309 307 306 305 304 303 302 302 302 305 306 304
310 312 312 316 315 316 315 318 315 313 314 312 313 313 313 312 312 310 310 311 311 311 311 311 311 309 307 306 306 305 303 302 301 301 302 302 302 301 301 301 302 301 300 300 300 301 302 304 304
312 314 313 313 311 315 316 314 313 313 315 314 313 313 311 310 311 311 311 311 310 309 309 308 307 306 305 304 302 301 300 300 300 299 299 299 298 298 298 299 298 298 298 298 298 298 300 303 302
315 314 314 314 314 315 316 312 309 313 315 315 313 313 312 311 309 309 309 308 308 308 307 306 304 302 301 300 300 299 299 298 298 298 298 297 297 297 296 296 296 296 297 297 297 297 297 299 301
314 310 312 315 313 315 317 317 312 314 313 312 312 311 310 309 308 308 308 308 307 305 303 302 301 300 299 298 298 298 297 297 297 296 296 296 296 296 295 295 295 295 296 296 296 296 297 297 299
316 312 310 318 317 317 318 317 313 313 313 311 310 310 309 309 309 308 308 306 302 301 301 300 299 299 298 298 297 297 297 297 296 296 295 295 296 295 295 294 294 294 295 295 295 295 296 296 296
316 315 314 315 312 313 317 313 308 311 310 310 310 309 309 309 309 307 304 302 301 301 300 299 299 298 297 297 297 296 295 295 296 294 294 294 293 292 292 293 292 292 292 293 293 294 294 295 295
313 313 314 310 305 309 314 313 307 312 310 308 308 308 308 308 305 303 302 301 301 300 299 299 298 297 297 297 296 296 296 295 295 294 293 291 291 290 290 290 290 289 290 290 290 291 292 294 294
311 311 310 312 304 302 307 305 308 311 310 308 307 308 305 303 302 302 301 301 300 300 299 298 297 297 296 296 297 297 295 294 293 293 292 291 291 290 290 290 290 289 290 290 290 289 289 290 292
312 310 305 306 315 299 301 303 307 310 311 308 306 305 304 303 302 302 301 300 300 299 298 296 297 296 296 296 297 295 295 294 294 293 291 291 290 290 290 290 290 289 290 289 290 290 289 289 289
Wind_Speed
3 6 3 4 3 5 4 5 4 5 1 4 7 5 7 7 3 3 11 17 19 23 21 18 18 16 14 14 12 12 11 10 9 8 8 7 6 5 5 4 4 6 6 6 6 5 4 3 2
4 3 3 2 4 3 5 4 6 3 3 19 14 8 6 4 3 14 26 17 23 23 24 18 18 16 14 13 12 12 11 11 10 9 8 7 6 5 4 4 5 6 6 6 8 7 5 4 3
3 1 1 4 3 2 4 5 9 4 16 4 5 11 4 3 6 24 17 24 26 23 22 20 19 17 14 12 12 11 11 11 10 9 8 7 7 7 6 5 5 6 5 8 9 8 6 5 5
1 0 4 4 4 6 5 15 11 5 6 6 11 7 7 4 19 9 22 26 24 22 22 20 18 16 15 13 12 11 11 10 9 9 8 8 7 7 7 6 7 7 7 8 8 7 7 6 6
2 1 4 2 5 6 6 12 14 5 5 4 3 4 6 4 4 13 23 23 22 24 19 18 17 15 14 12 10 11 10 10 9 9 8 8 7 8 8 8 8 8 7 7 7 6 6 6 6
1 2 4 2 4 6 8 13 9 7 5 5 7 6 4 7 13 21 21 23 21 20 19 17 13 14 13 11 10 10 9 8 8 8 7 8 9 11 10 10 10 9 8 7 7 6 5 5 6
4 4 3 3 5 7 4 9 6 6 7 7 6 5 7 14 20 20 19 18 18 19 19 16 13 13 12 11 9 8 7 8 8 8 9 10 12 12 11 11 11 10 9 9 8 6 5 3 3
2 4 1 4 3 5 6 3 4 8 5 7 3 6 9 20 22 20 19 19 18 18 16 14 14 11 12 8 4 6 7 9 9 9 11 11 11 10 10 11 11 11 11 11 11 9 6 5 3
3 4 3 4 4 5 3 1 6 6 9 4 4 6 4 27 25 23 22 20 16 14 5 7 10 10 10 7 5 6 7 9 10 11 9 10 8 8 9 9 9 10 9 10 10 10 8 5 3
4 3 6 6 5 4 1 3 6 3 4 7 15 14 20 27 28 26 26 23 16 13 6 1 5 6 6 6 4 5 7 9 10 9 7 7 6 4 5 6 6 7 7 7 8 9 8 6 4
4 4 6 14 20 14 5 4 3 11 2 7 17 26 27 28 29 27 25 16 10 13 6 5 4 4 6 8 8 8 10 10 8 7 6 4 3 3 2 3 3 4 5 6 7 9 10 8 6
1 11 9 16 6 12 3 6 6 1 2 11 18 21 26 28 29 28 24 20 18 13 12 10 7 7 9 7 9 9 10 9 7 5 5 2 2 1 3 3 4 5 6 7 9 11 12 11 10
5 5 8 10 10 16 17 15 4 10 6 17 22 21 23 25 24 25 21 22 21 17 14 12 7 7 9 7 8 8 7 7 6 6 6 5 4 5 7 7 9 9 10 10 10 13 16 15 14
4 9 9 9 22 21 26 15 5 16 11 18 16 12 15 21 21 23 24 24 22 17 15 11 7 5 7 7 9 8 9 9 10 9 8 9 10 10 10 13 12 12 12 11 15 17 16 17 16
6 4 11 22 2 5 7 14 16 15 16 19 16 12 8 7 15 19 19 18 18 15 9 9 6 9 9 9 9 11 8 10 13 14 12 13 14 14 15 16 17 17 16 18 20 17 16 16 16
6 5 5 21 9 12 13 4 16 17 25 26 22 20 15 14 10 11 12 11 15 14 11 10 10 9 10 11 13 12 12 13 15 16 16 17 18 19 20 22 22 21 22 21 20 18 17 16 17
7 2 6 5 26 4 9 2 17 18 35 26 26 25 24 21 16 10 10 11 12 18 15 12 9 9 12 13 19 19 20 20 19 20 22 21 22 23 24 22 24 27 28 26 23 19 18 17 17
0 5 7 8 7 21 18 10 8 15 30 22 22 22 22 19 18 9 6 6 5 9 15 12 8 9 11 14 13 17 21 22 22 23 24 26 26 30 32 30 30 33 32 30 29 23 20 21 19
8 7 14 7 5 12 7 9 9 7 21 18 17 16 14 12 8 3 6 3 6 5 4 9 22 17 14 18 19 27 29 29 27 26 25 26 27 30 29 27 24 21 30 31 27 26 30 25 23
11 13 3 5 12 10 6 8 4 11 4 10 13 10 6 5 3 1 3 6 9 10 13 14 18 17 21 23 23 25 25 28 30 31 29 31 29 31 31 30 31 33 32 29 34 36 35 30 27
2 6 5 6 4 6 6 5 5 5 10 5 5 4 5 4 5 7 7 11 10 10 10 13 16 18 20 22 24 26 27 30 32 33 31 30 32 33 33 35 31 28 27 26 26 27 30 33 30
4 3 6 13 4 4 2 0 3 5 7 1 1 3 1 6 5 7 10 11 12 13 14 19 19 20 22 24 26 27 30 32 33 33 33 33 33 34 34 34 32 31 31 32 32 31 31 32 31
4 1 5 6 4 4 7 4 4 4 4 3 2 1 4 8 10 12 11 12 15 17 16 18 21 22 22 24 27 29 30 31 31 31 31 30 29 29 31 33 34 34 33 32 32 31 32 34 33
1 4 6 6 4 3 5 2 4 2 4 3 5 5 8 9 9 9 10 14 17 15 18 20 21 23 24 26 28 29 31 32 32 31 32 32 32 32 30 30 32 33 33 34 34 35 37 37 37
7 4 3 4 4 1 4 2 4 4 7 7 4 5 5 11 13 13 14 16 14 17 20 20 23 25 27 28 29 31 28 29 30 30 31 32 31 29 28 29 29 30 31 30 28 27 26 35 37
4 5 4 4 4 1 5 0 3 4 11 3 2 7 11 16 17 17 15 15 18 19 20 24 25 29 27 30 29 28 29 34 34 36 38 39 38 35 32 33 33 31 34 34 33 33 35 31 25
1 5 2 6 3 3 2 4 7 5 3 6 8 13 16 19 16 13 14 18 18 21 25 26 26 27 30 28 28 28 30 35 37 30 32 28 28 25 25 27 28 29 34 36 36 37 38 40 43
5 2 2 4 3 2 1 2 3 4 6 8 11 16 19 13 12 14 17 20 21 24 26 24 28 30 29 25 29 38 30 27 25 24 23 22 22 20 21 21 21 22 22 22 26 31 38 45 41
4 3 6 4 3 4 3 5 5 5 7 8 15 14 11 14 15 16 20 22 22 25 25 27 29 27 22 34 30 21 19 22 22 24 25 24 24 22 23 23 22 22 20 21 23 22 23 27 36
3 4 3 4 3 2 3 4 4 8 11 10 6 11 14 15 18 21 24 23 23 25 28 30 25 21 34 33 19 17 20 23 23 21 22 20 20 19 20 20 20 20 20 21 21 23 23 21 24
Wind_Direction
351 332 322 335 39 53 288 274 293 299 295 337 108 124 127 74 131 189 147 152 166 160 166 169 161 158 146 141 141 139 143 146 145 142 142 136 133 131 122 93 69 60 73 85 90 80 71 68 42
338 347 338 47 78 30 283 262 298 259 70 95 85 81 52 74 98 146 149 154 166 162 167 170 160 161 150 145 139 137 139 141 142 143 142 141 132 116 101 87 68 57 52 59 75 81 83 81 86
306 294 345 87 90 210 264 247 260 337 153 303 95 63 63 49 133 141 157 155 168 166 168 164 160 163 153 149 141 141 140 145 147 148 142 139 131 121 108 90 75 69 59 51 64 69 77 88 121
291 55 55 77 244 259 233 293 307 141 142 61 104 62 67 28 136 160 159 161 166 161 164 160 163 161 152 153 151 151 145 149 146 142 140 135 125 117 107 92 72 61 53 57 61 68 73 84 130
203 41 54 34 275 272 282 309 345 99 92 35 62 109 69 166 194 159 158 164 164 155 154 164 166 162 155 163 154 152 151 149 152 146 140 131 121 110 98 93 86 76 66 60 60 64 76 98 136
119 71 56 278 275 280 298 359 339 50 73 80 74 85 53 155 160 154 155 156 158 151 157 165 168 160 164 170 166 161 160 161 157 148 137 127 116 110 100 91 84 79 71 62 58 54 67 98 142
123 87 203 217 275 317 281 5 5 56 58 47 98 73 125 152 156 152 153 157 157 158 157 165 172 172 180 178 179 167 170 160 152 144 136 121 117 105 88 84 80 71 63 56 55 49 49 73 136
149 95 124 240 201 279 312 94 61 49 46 103 43 150 170 175 162 154 151 153 159 161 160 170 179 193 186 199 182 185 175 164 151 140 138 123 116 98 89 81 74 63 65 59 54 51 44 51 75
179 71 252 249 185 260 299 110 65 88 130 90 30 156 208 162 162 159 156 154 156 156 160 200 202 208 215 205 218 194 171 163 152 146 134 126 118 94 98 86 74 64 61 55 42 36 34 38 58
136 143 235 210 208 230 249 151 129 97 65 60 80 114 154 160 167 168 169 164 169 176 166 169 197 215 210 219 215 194 176 162 153 159 152 132 129 114 99 80 69 54 50 43 35 28 19 12 15
185 216 226 254 249 215 172 132 107 129 35 183 153 150 161 167 175 180 181 186 177 174 153 136 148 184 199 197 185 178 175 168 161 165 163 154 136 145 102 78 46 14 12 11 8 4 5 358 345
306 257 265 281 268 153 105 82 70 22 234 160 155 154 168 178 185 190 188 187 183 193 180 165 176 174 163 153 158 162 175 183 184 190 188 194 242 253 311 330 340 328 333 335 346 347 347 343 339
212 277 328 338 115 89 91 35 66 16 168 149 156 167 179 187 194 198 199 192 191 193 184 184 171 174 174 158 165 171 187 194 206 219 230 245 284 290 298 302 313 314 318 320 329 334 334 328 325
257 273 293 82 103 89 70 31 56 352 161 130 141 152 174 197 201 199 203 204 200 194 191 196 184 181 192 193 204 217 234 241 239 243 253 260 277 282 285 291 301 308 309 308 309 317 321 320 312
282 333 82 10 58 99 41 24 5 29 121 94 102 119 158 205 220 214 219 219 208 194 207 203 207 203 212 227 238 229 226 238 252 267 263 267 270 273 273 278 287 291 294 296 297 298 305 314 301
28 40 37 27 354 17 86 341 6 43 100 70 77 76 77 76 145 197 216 215 219 209 194 200 208 223 235 255 258 255 253 258 263 263 263 268 275 275 275 272 278 282 276 273 280 284 288 298 299
16 33 13 43 17 60 67 34 15 56 80 64 73 76 80 85 93 122 171 195 206 215 201 192 203 243 248 276 268 266 271 273 274 270 268 269 269 265 266 265 270 270 269 266 271 271 276 290 295
157 107 59 74 5 70 70 72 40 60 83 77 80 80 80 83 88 106 146 181 167 182 188 192 214 229 255 260 268 287 289 282 282 280 273 267 269 264 268 263 264 260 261 257 261 260 276 279 284
99 93 119 169 181 66 74 70 44 52 85 90 84 82 81 82 83 51 333 292 136 141 194 274 290 283 274 277 291 284 288 288 284 283 276 275 278 273 272 276 259 255 250 246 245 249 272 261 268
93 118 90 40 94 90 92 48 17 30 44 112 110 95 88 85 125 246 297 326 314 291 281 289 289 279 282 285 292 289 287 287 289 284 280 282 276 274 275 274 277 275 272 269 261 260 273 256 253
77 138 181 137 87 125 104 30 9 345 20 78 79 99 95 83 54 34 352 327 312 305 294 290 286 271 275 275 279 284 285 287 286 285 281 272 267 268 269 274 274 273 269 263 258 256 251 250 250
130 190 127 146 129 148 330 125 12 345 336 81 253 254 31 355 349 326 313 308 303 297 285 281 284 285 291 288 289 292 293 292 293 292 287 281 277 277 274 268 264 265 266 263 262 260 255 246 245
179 242 184 163 90 84 15 75 282 353 320 314 278 250 338 331 311 315 308 306 303 298 289 298 302 299 295 294 296 294 293 293 292 288 285 283 280 275 270 267 265 264 265 265 261 257 245 240 244
324 104 56 62 81 53 346 114 300 298 281 284 266 304 313 322 341 325 314 314 318 299 302 303 300 298 298 296 298 292 291 290 288 285 283 281 278 272 267 275 272 269 271 265 259 254 250 244 238
48 57 33 37 29 333 270 12 240 299 319 256 279 339 331 325 331 324 309 314 313 310 309 309 312 311 311 309 307 305 297 298 297 299 298 292 285 278 272 262 265 263 265 256 252 250 248 244 239
53 122 142 145 161 195 6 196 274 288 296 70 10 295 308 323 318 318 318 321 321 320 320 322 321 319 315 309 304 297 300 297 292 294 289 288 289 280 270 265 262 260 255 248 248 248 242 247 248
287 53 129 109 53 79 2 318 328 355 5 343 308 316 315 314 316 328 327 327 328 328 330 324 319 314 311 300 295 300 302 302 303 303 300 300 295 294 283 272 272 265 261 258 253 247 247 244 246
81 105 85 24 107 129 298 237 241 329 300 297 300 312 332 346 343 336 333 334 334 330 327 322 314 313 308 307 310 310 307 310 313 310 307 309 300 296 289 284 281 275 271 263 257 254 250 245 239
358 46 57 101 104 145 142 268 217 246 265 270 310 343 356 351 345 340 342 339 331 329 326 324 322 314 314 321 323 327 329 322 318 313 309 302 299 295 288 284 279 276 275 263 254 250 250 244 242
72 108 108 116 165 102 132 279 261 246 280 310 3 353 347 347 347 345 341 335 330 332 334 334 323 318 326 328 326 319 322 320 313 310 308 307 304 300 297 290 279 278 268 262 262 249 249 248 240